ROMMA est une association bénévole à but non lucratif. Votre soutien est indispensable : ADHERER à ROMMA ou FAIRE un DON

Chambon - (38, Isère)

Oisans (2460 m)   Longitude: 06° 10' 42" E   Latitude: 45° 01' 32" N Station partenaire n°803
 

Détail journalier du     <<     >>

Température Humidité Vent Dir Rafale Dir. rafale Neige 1 Neige 2
Heure (°C) (%) (km/h) (km/h) (cm) (cm)
01:00 6.9417SSO19SSO03
02:00 7.5569SSO18SSO02
03:00 7.0597SSO13SO02
04:00 5.1619SSO15OSO02
05:00 4.8639SSO15OSO02
06:00 4.7608SSO26SSO02
07:00 5.88011SSO24SSO02
08:00 6.4788S22S03
09:00 6.88010SSO21SSO02
10:00 7.37913SSO18SSO02
11:00 7.57714SO19OSO02
12:00 7.97712OSO19OSO02
13:00 7.5779OSO17OSO02
14:00 6.07813OSO19O02
15:00 4.09014OSO26OSO03
16:00 6.87812SSO29SSO02
17:00 5.98319SSO36OSO02
18:00 5.58122SSO36SSO02
19:00 5.28414SSO29SSO02
20:00 5.18512SO17SO01
21:00 4.88613OSO18OSO01
22:00 4.48714SO24SO02
23:00 4.49014SO22SO02
minuit 4.48812SSO24SSO02

Graphique du 28-10-2019

 

Serveur OMMA